Hourly Data Report for January 07, 2022

TERRACE A
BRITISH COLUMBIA
Current Station Operator: NAVCAN

54°28'07.000" N
128°34'42.000" W
217.30 m
1068134
71951
YXT

Download Data

Hourly Data (January 2022)
Hourly Data Report for January 7, 2022
TIME
LST
Temp Definition
°C
Dew Point Definition
°C
Rel Hum Definition
%
Precip. Amount Definition
mm

Wind Dir Definition
10's deg

Wind Spd Definition
km/h
Visibility Definition
km
Stn Press Definition
kPa
Hmdx Definition


Wind Chill Definition


Weather Definition


00:00 -16.7 -21.8 66 LegendMM 36 39 24.1 97.32   -30 Snow,Blowing Snow
01:00 -16.9 -21.8 66 LegendMM 35 33 24.1 97.32   -29 Snow,Blowing Snow
02:00 -17.4 -22.1 68 LegendMM 36 37 24.1 97.30   -30 LegendNANA
03:00 -17.5 -22.0 69 LegendMM 36 40 24.1 97.33   -31 Blowing Snow
04:00 -17.6 -22.0 69 LegendMM 36 36 24.1 97.36   -30 Blowing Snow
05:00 -17.6 -22.1 68 LegendMM 36 37 24.1 97.39   -31 Blowing Snow
06:00 -18.2 -22.1 72 LegendMM 1 29 24.1 97.41   -30 LegendNANA
07:00 -18.4 -22.4 71 LegendMM 1 27 24.1 97.46   -30 Clear
08:00 -18.4 -22.7 70 LegendMM 2 26 32.2 97.49   -30 LegendNANA
09:00 -18.9 -23.0 71 LegendMM 1 22 32.2 97.55   -30 LegendNANA
10:00 -19.0 -22.3 76 LegendMM 4 13 32.2 97.65   -27 Mostly Cloudy
11:00 -18.4 -22.5 71 LegendMM 3 5 32.2 97.75   -22 LegendNANA
12:00 -17.6 -22.0 69 LegendMM 4 8 32.2 97.81   -23 LegendNANA
13:00 -17.6 -22.2 68 LegendMM 4 7 32.2 97.84   -23 Mostly Cloudy
14:00 -17.1 -21.5 69 LegendMM 2 5 32.2 97.86   -21 LegendNANA
15:00 -16.6 -21.4 67 LegendMM 36 5 32.2 97.91   -20 LegendNANA
16:00 -16.5 -21.0 69 LegendMM 36 7 32.2 98.00   -22 Mostly Cloudy
17:00 -16.7 -21.0 70 LegendMM 1 16 16.1 98.08   -25 Snow
18:00 -16.9 -20.8 72 LegendMM 2 14 16.1 98.11   -25 Snow
19:00 -16.6 -20.9 70 LegendMM 36 14 16.1 98.21   -25 Snow
20:00 -16.8 -20.6 73 LegendMM 1 16 24.1 98.27   -25 Snow
21:00 -16.6 -20.4 73 LegendMM 3 14 24.1 98.32   -25 Snow
22:00 -16.5 -19.6 77 LegendMM 2 19 24.1 98.38   -26 Snow,Blowing Snow
23:00 -16.6 -19.6 78 LegendMM 1 18 24.1 98.41   -26 Snow,Blowing Snow

Notes on Data Quality.

Legend

  • E = Estimated
  • M = Missing
  • NA = Not Available*
  • [empty] = Indicates an unobserved value
Date modified: